Location: Unspecified
(35.7250°N, 0.0000°E)
Time: 08:50:14
(UTC+00:00)

Tiros 1 - Pass Details

Date: 30 June 2019
Orbit: 631 x 664 km, 48.4° (Epoch: 24 August)

Event Time Altitude Azimuth Distance (km) Brightness Sun altitude
Rises 22:10:44 0° 289° (WNW) 2,964 11.2 -25.3°
Reaches altitude 10° 22:13:46 10° 309° (NW) 2,047 10.6 -25.6°
Maximum altitude 22:17:00 18° 352° (N) 1,575 9.9 -25.9°
Drops below altitude 10° 22:20:14 10° 36° (NE) 2,033 10.0 -26.2°
Sets 22:23:13 0° 55° (NE) 2,936 10.6 -26.5°
